Weather History for Charlottesville, VA

Change the Weather History Date:

Tuesday, December 4, 2012

  Actual Average Record
Temperature  
Mean Temperature 59 °F 41 °F  
Max Temperature 73 °F 50 °F 73 °F (2012)
Min Temperature 45 °F 31 °F 11 °F (2002)
Degree Days  
Heating Degree Days 6 24  
Month to date heating degree days 51 95  
Since 1 July heating degree days 960 986  
Cooling Degree Days 0 0  
Month to date cooling degree days 0 0  
Year to date cooling degree days 1604 1035  
Growing Degree Days 9 (Base 50)    
Moisture  
Dew Point 48 °F    
Average Humidity 71    
Maximum Humidity 100    
Minimum Humidity 41    
Precipitation  
Precipitation 0.00 in 0.12 in 3.46 in (1948)
Month to date precipitation T 0.50  
Year to date precipitation 33.73 40.06  
Sea Level Pressure  
Sea Level Pressure 30.16 in    
Wind  
Wind Speed 7 mph (SSW)    
Max Wind Speed 16 mph    
Max Gust Speed 22 mph    
Visibility 8 miles    
Events      
T = Trace of Precipitation, MM = Missing Value Source: NWS Daily Summary

Daily Weather History Graph

Daily Weather History Graph

Search for Another Location

Airport:

Trip Planner

Search our weather history database for the weather conditions in past years. The results will help you decide how hot, cold, wet, or windy it might be!

Date:

Astronomy

Dec. 04, 2012 Rise Set
Actual Time 7:14 AM EST 4:53 PM EST
Civil Twilight 6:45 AM EST 5:23 PM EST
Nautical Twilight 6:12 AM EST 5:55 PM EST
Astronomical Twilight 5:40 AM EST 6:27 PM EST
Moon 10:35 PM EST (12/4) 11:10 AM EST (12/4)
Length of Visible Light 10h 37m
Length of Day
9h 39m
Waning Gibbous, 69% of the Moon is Illuminated
Dec 4
Waning Gibbous
Dec 6
Last Quarter
Dec 13
New
Dec 20
First Quarter
Dec 28
Full

Hourly Weather History & Observations

Time (EST) Temp. Dew Point Humidity Pressure Visibility Wind Dir Wind Speed Gust Speed Precip Events Conditions
1:53 AM 50.0 °F 48.9 °F 96% 30.22 in 7.0 mi Calm Calm - N/A   Clear
2:53 AM 50.0 °F 48.9 °F 96% 30.22 in 8.0 mi West 3.5 mph - N/A   Clear
3:16 AM 46.4 °F 44.6 °F 93% 30.22 in 1.8 mi Calm Calm - N/A   Clear
3:41 AM 46.4 °F 46.4 °F 100% 30.22 in 2.5 mi Calm Calm - N/A   Clear
3:51 AM 48.2 °F 46.4 °F 93% 30.22 in 6.0 mi Calm Calm - N/A   Clear
3:53 AM 48.9 °F 48.0 °F 97% 30.21 in 6.0 mi WSW 4.6 mph - N/A   Clear
4:53 AM 48.9 °F 46.9 °F 93% 30.21 in 8.0 mi WSW 3.5 mph - N/A   Mostly Cloudy
5:53 AM 50.0 °F 48.9 °F 96% 30.21 in 6.0 mi SW 3.5 mph - N/A   Overcast
6:53 AM 50.0 °F 48.0 °F 93% 30.22 in 8.0 mi WSW 4.6 mph - N/A   Scattered Clouds
7:53 AM 48.9 °F 46.9 °F 93% 30.23 in 5.0 mi SSW 5.8 mph - N/A   Clear
8:53 AM 53.1 °F 50.0 °F 89% 30.23 in 10.0 mi SSW 5.8 mph - N/A   Clear
9:53 AM 60.1 °F 52.0 °F 75% 30.22 in 10.0 mi SSW 5.8 mph - N/A   Clear
10:53 AM 64.9 °F 51.1 °F 61% 30.22 in 10.0 mi South 8.1 mph - N/A   Clear
11:53 AM 70.0 °F 51.1 °F 51% 30.18 in 10.0 mi South 8.1 mph - N/A   Clear
1:53 PM 72.0 °F 50.0 °F 46% 30.12 in 10.0 mi South 9.2 mph - N/A   Clear
2:53 PM 71.1 °F 48.9 °F 45% 30.10 in 10.0 mi South 10.4 mph - N/A   Clear
3:53 PM 69.1 °F 48.0 °F 47% 30.10 in 10.0 mi SSW 11.5 mph - N/A   Clear
4:53 PM 64.9 °F 46.9 °F 52% 30.11 in 10.0 mi SW 16.1 mph - N/A   Mostly Cloudy
5:53 PM 61.0 °F 46.9 °F 60% 30.11 in 10.0 mi SW 13.8 mph - N/A   Mostly Cloudy
6:53 PM 62.1 °F 46.9 °F 58% 30.11 in 10.0 mi South 8.1 mph - N/A   Mostly Cloudy
7:53 PM 61.0 °F 46.9 °F 60% 30.10 in 10.0 mi SSW 9.2 mph - N/A   Clear
8:53 PM 60.1 °F 46.0 °F 60% 30.08 in 10.0 mi South 9.2 mph - N/A   Partly Cloudy
9:53 PM 63.0 °F 46.0 °F 54% 30.07 in 10.0 mi SSW 10.4 mph - N/A   Scattered Clouds
10:53 PM 62.1 °F 46.0 °F 56% 30.06 in 10.0 mi SSW 9.2 mph - N/A   Overcast
11:53 PM 60.1 °F 46.0 °F 60% 30.04 in 10.0 mi South 12.7 mph - N/A   Scattered Clouds